Time,TemperatureF,DewpointF,PressureIn,WindDirection,WindDirectionDegrees,WindSpeedMPH,WindSpeedGustMPH,Humidity,HourlyPrecipIn,Conditions,Clouds,dailyrainin,SoftwareType,DateUTC
2013-07-08 00:53:00,67.7,67.0,29.91,WNW,287,0.0,-999.0,97,-99.99,,,0.00,weatherlink.com 1.10,2013-07-08 04:53:00,
2013-07-08 00:59:00,67.9,67.0,29.91,WNW,287,0.0,-999.0,97,-99.99,,,0.00,weatherlink.com 1.10,2013-07-08 04:59:00,
2013-07-08 01:14:00,68.1,67.0,29.91,WNW,287,0.0,-999.0,96,-99.99,,,0.00,weatherlink.com 1.10,2013-07-08 05:14:00,
2013-07-08 01:29:00,68.2,67.0,29.91,WNW,287,0.0,-999.0,96,-99.99,,,0.00,weatherlink.com 1.10,2013-07-08 05:29:00,
2013-07-08 01:44:00,68.7,67.0,29.90,WNW,287,0.0,-999.0,93,-99.99,,,0.00,weatherlink.com 1.10,2013-07-08 05:44:00,
2013-07-08 01:59:00,69.0,67.0,29.90,WNW,287,0.0,-999.0,92,-99.99,,,0.00,weatherlink.com 1.10,2013-07-08 05:59:00,
2013-07-08 02:14:00,68.9,66.0,29.90,WNW,287,0.0,-999.0,91,-99.99,,,0.00,weatherlink.com 1.10,2013-07-08 06:14:00,
2013-07-08 02:29:00,69.0,66.0,29.91,WNW,287,0.0,-999.0,90,-99.99,,,0.00,weatherlink.com 1.10,2013-07-08 06:29:00,
2013-07-08 02:44:00,68.8,66.0,29.91,WNW,287,0.0,-999.0,91,-99.99,,,0.00,weatherlink.com 1.10,2013-07-08 06:44:00,
2013-07-08 02:59:00,68.6,67.0,29.91,WNW,287,0.0,-999.0,93,-99.99,,,0.00,weatherlink.com 1.10,2013-07-08 06:59:00,
2013-07-08 03:14:00,68.4,67.0,29.91,WNW,287,0.0,-999.0,94,-99.99,,,0.00,weatherlink.com 1.10,2013-07-08 07:14:00,
2013-07-08 03:29:00,68.2,67.0,29.91,WNW,287,0.0,-999.0,94,-99.99,,,0.00,weatherlink.com 1.10,2013-07-08 07:29:00,
2013-07-08 03:44:00,68.2,67.0,29.91,WNW,287,0.0,-999.0,94,-99.99,,,0.00,weatherlink.com 1.10,2013-07-08 07:44:00,
2013-07-08 03:59:00,67.8,66.0,29.89,WNW,287,0.0,-999.0,94,-99.99,,,0.00,weatherlink.com 1.10,2013-07-08 07:59:00,
2013-07-08 04:14:00,67.8,66.0,29.89,WNW,287,0.0,-999.0,94,-99.99,,,0.00,weatherlink.com 1.10,2013-07-08 08:14:00,
2013-07-08 04:29:00,68.0,66.0,29.89,WNW,288,0.0,-999.0,94,-99.99,,,0.00,weatherlink.com 1.10,2013-07-08 08:29:00,
2013-07-08 04:44:00,68.1,67.0,29.89,WNW,288,0.0,-999.0,95,-99.99,,,0.00,weatherlink.com 1.10,2013-07-08 08:44:00,
2013-07-08 04:59:00,68.1,67.0,29.89,SW,225,3.0,-999.0,96,-99.99,,,0.00,weatherlink.com 1.10,2013-07-08 08:59:00,
2013-07-08 05:14:00,68.3,68.0,29.90,South,173,1.0,-999.0,97,-99.99,,,0.00,weatherlink.com 1.10,2013-07-08 09:14:00,
2013-07-08 05:29:00,68.4,68.0,29.90,South,172,0.0,-999.0,97,-99.99,,,0.00,weatherlink.com 1.10,2013-07-08 09:29:00,
2013-07-08 05:44:00,68.5,68.0,29.90,ESE,122,3.0,-999.0,97,-99.99,,,0.00,weatherlink.com 1.10,2013-07-08 09:44:00,
2013-07-08 05:59:00,68.9,68.0,29.91,East,101,2.0,-999.0,97,-99.99,,,0.00,weatherlink.com 1.10,2013-07-08 09:59:00,
2013-07-08 06:14:00,69.0,68.0,29.91,East,99,2.0,-999.0,97,-99.99,,,0.00,weatherlink.com 1.10,2013-07-08 10:14:00,
2013-07-08 06:29:00,69.0,68.0,29.92,East,95,1.0,-999.0,97,-99.99,,,0.00,weatherlink.com 1.10,2013-07-08 10:29:00,
2013-07-08 06:44:00,68.8,68.0,29.91,East,96,3.0,-999.0,97,-99.99,,,0.00,weatherlink.com 1.10,2013-07-08 10:44:00,
2013-07-08 06:59:00,68.6,68.0,29.92,East,94,1.0,-999.0,97,-99.99,,,0.00,weatherlink.com 1.10,2013-07-08 10:59:00,
2013-07-08 07:14:00,68.5,68.0,29.92,East,91,4.0,-999.0,98,-99.99,,,0.00,weatherlink.com 1.10,2013-07-08 11:14:00,
2013-07-08 07:29:00,68.5,68.0,29.91,East,84,1.0,-999.0,98,-99.99,,,0.00,weatherlink.com 1.10,2013-07-08 11:29:00,
2013-07-08 07:44:00,68.2,67.0,29.91,ENE,74,5.0,-999.0,97,-99.99,,,0.00,weatherlink.com 1.10,2013-07-08 11:44:00,
2013-07-08 07:59:00,67.8,67.0,29.91,East,94,2.0,-999.0,98,-99.99,,,0.00,weatherlink.com 1.10,2013-07-08 11:59:00,
2013-07-08 08:14:00,67.5,67.0,29.92,East,95,4.0,-999.0,98,-99.99,,,0.00,weatherlink.com 1.10,2013-07-08 12:14:00,
2013-07-08 08:29:00,67.2,67.0,29.92,ESE,105,2.0,-999.0,98,-99.99,,,0.00,weatherlink.com 1.10,2013-07-08 12:29:00,
2013-07-08 08:44:00,67.1,66.0,29.93,ESE,113,3.0,-999.0,97,-99.99,,,0.00,weatherlink.com 1.10,2013-07-08 12:44:00,
2013-07-08 08:59:00,66.9,66.0,29.92,ESE,111,5.0,-999.0,97,-99.99,,,0.00,weatherlink.com 1.10,2013-07-08 12:59:00,
2013-07-08 09:14:00,66.8,66.0,29.93,East,97,2.0,-999.0,98,-99.99,,,0.00,weatherlink.com 1.10,2013-07-08 13:14:00,
2013-07-08 09:30:00,66.6,66.0,29.93,ESE,109,5.0,-999.0,98,-99.99,,,0.02,weatherlink.com 1.10,2013-07-08 13:30:00,
2013-07-08 09:45:00,66.5,66.0,29.93,ESE,112,4.0,-999.0,98,-99.99,,,0.03,weatherlink.com 1.10,2013-07-08 13:45:00,
2013-07-08 10:00:00,66.6,66.0,29.92,East,98,2.0,-999.0,98,-99.99,,,0.03,weatherlink.com 1.10,2013-07-08 14:00:00,
2013-07-08 10:15:00,66.6,66.0,29.91,ESE,103,4.0,-999.0,99,-99.99,,,0.04,weatherlink.com 1.10,2013-07-08 14:15:00,
2013-07-08 10:30:00,66.4,66.0,29.92,ESE,115,3.0,-999.0,99,-99.99,,,0.05,weatherlink.com 1.10,2013-07-08 14:30:00,
2013-07-08 10:45:00,66.7,66.0,29.93,ESE,102,0.0,-999.0,99,-99.99,,,0.06,weatherlink.com 1.10,2013-07-08 14:45:00,
2013-07-08 11:00:00,67.2,67.0,29.94,SE,126,0.0,-999.0,99,-99.99,,,0.08,weatherlink.com 1.10,2013-07-08 15:00:00,
2013-07-08 11:15:00,67.6,67.0,29.93,SE,125,0.0,-999.0,99,-99.99,,,0.09,weatherlink.com 1.10,2013-07-08 15:15:00,
2013-07-08 11:30:00,68.0,68.0,29.93,East,95,6.0,-999.0,100,-99.99,,,0.10,weatherlink.com 1.10,2013-07-08 15:30:00,
2013-07-08 11:45:00,67.7,67.0,29.92,East,97,10.0,-999.0,99,-99.99,,,0.11,weatherlink.com 1.10,2013-07-08 15:45:00,
2013-07-08 12:00:00,67.6,67.0,29.91,ESE,110,9.0,-999.0,99,-99.99,,,0.11,weatherlink.com 1.10,2013-07-08 16:00:00,
2013-07-08 12:15:00,67.4,67.0,29.92,East,87,7.0,-999.0,99,-99.99,,,0.12,weatherlink.com 1.10,2013-07-08 16:15:00,
2013-07-08 12:30:00,67.3,67.0,29.91,East,89,5.0,-999.0,99,-99.99,,,0.12,weatherlink.com 1.10,2013-07-08 16:30:00,
2013-07-08 13:00:00,67.4,67.0,29.91,East,90,6.0,-999.0,99,-99.99,,,0.12,weatherlink.com 1.10,2013-07-08 17:00:00,
2013-07-08 13:15:00,67.8,68.0,29.91,East,86,3.0,-999.0,99,-99.99,,,0.12,weatherlink.com 1.10,2013-07-08 17:15:00,
2013-07-08 13:30:00,68.6,68.0,29.91,ENE,78,4.0,-999.0,99,-99.99,,,0.12,weatherlink.com 1.10,2013-07-08 17:30:00,
2013-07-08 13:45:00,67.6,67.0,29.92,ENE,68,4.0,-999.0,98,-99.99,,,0.12,weatherlink.com 1.10,2013-07-08 17:45:00,
2013-07-08 14:00:00,67.4,67.0,29.91,ESE,107,5.0,-999.0,99,-99.99,,,0.13,weatherlink.com 1.10,2013-07-08 18:00:00,
2013-07-08 14:15:00,67.7,67.0,29.91,East,95,3.0,-999.0,99,-99.99,,,0.13,weatherlink.com 1.10,2013-07-08 18:15:00,
2013-07-08 14:30:00,67.4,67.0,29.92,East,82,4.0,-999.0,99,-99.99,,,0.13,weatherlink.com 1.10,2013-07-08 18:30:00,
2013-07-08 14:45:00,67.2,67.0,29.92,ENE,76,6.0,-999.0,99,-99.99,,,0.13,weatherlink.com 1.10,2013-07-08 18:45:00,
2013-07-08 15:00:00,66.8,67.0,29.92,East,92,5.0,-999.0,99,-99.99,,,0.13,weatherlink.com 1.10,2013-07-08 19:00:00,
2013-07-08 15:45:00,66.2,66.0,29.93,East,79,4.0,-999.0,99,-99.99,,,0.14,weatherlink.com 1.10,2013-07-08 19:45:00,
2013-07-08 16:15:00,65.4,65.0,29.93,ENE,68,4.0,-999.0,99,-99.99,,,0.15,weatherlink.com 1.10,2013-07-08 20:15:00,
2013-07-08 16:30:00,65.1,65.0,29.93,ENE,76,0.0,-999.0,99,-99.99,,,0.15,weatherlink.com 1.10,2013-07-08 20:30:00,
2013-07-08 17:00:00,64.4,64.0,29.92,East,95,6.0,-999.0,99,-99.99,,,0.16,weatherlink.com 1.10,2013-07-08 21:00:00,
2013-07-08 17:15:00,64.3,64.0,29.92,East,84,3.0,-999.0,99,-99.99,,,0.17,weatherlink.com 1.10,2013-07-08 21:15:00,
2013-07-08 17:30:00,64.1,64.0,29.92,ENE,75,11.0,-999.0,99,-99.99,,,0.17,weatherlink.com 1.10,2013-07-08 21:30:00,
2013-07-08 18:00:00,64.4,64.0,29.93,ENE,63,6.0,-999.0,100,-99.99,,,0.18,weatherlink.com 1.10,2013-07-08 22:00:00,
2013-07-08 18:30:00,64.9,65.0,29.92,East,82,6.0,-999.0,100,-99.99,,,0.19,weatherlink.com 1.10,2013-07-08 22:30:00,
2013-07-08 19:15:00,65.4,65.0,29.92,ESE,109,6.0,-999.0,100,-99.99,,,0.20,weatherlink.com 1.10,2013-07-08 23:15:00,
2013-07-08 19:30:00,65.4,65.0,29.92,ESE,119,2.0,-999.0,100,-99.99,,,0.20,weatherlink.com 1.10,2013-07-08 23:30:00,
2013-07-08 19:45:00,65.6,66.0,29.92,ENE,74,0.0,-999.0,100,-99.99,,,0.21,weatherlink.com 1.10,2013-07-08 23:45:00,
2013-07-08 20:15:00,65.7,66.0,29.93,East,84,4.0,-999.0,100,-99.99,,,0.21,weatherlink.com 1.10,2013-07-09 00:15:00,
2013-07-08 20:45:00,65.8,66.0,29.92,East,88,6.0,-999.0,100,-99.99,,,0.21,weatherlink.com 1.10,2013-07-09 00:45:00,
2013-07-08 21:15:00,65.9,66.0,29.93,East,91,3.0,-999.0,100,-99.99,,,0.22,weatherlink.com 1.10,2013-07-09 01:15:00,
2013-07-08 21:45:00,66.1,66.0,29.93,East,88,0.0,-999.0,100,-99.99,,,0.22,weatherlink.com 1.10,2013-07-09 01:45:00,
2013-07-08 22:00:00,66.2,66.0,29.94,ENE,76,4.0,-999.0,100,-99.99,,,0.23,weatherlink.com 1.10,2013-07-09 02:00:00,
2013-07-08 22:15:00,66.4,66.0,29.94,East,96,2.0,-999.0,100,-99.99,,,0.23,weatherlink.com 1.10,2013-07-09 02:15:00,
2013-07-08 22:30:00,66.6,67.0,29.94,ESE,109,3.0,-999.0,100,-99.99,,,0.23,weatherlink.com 1.10,2013-07-09 02:30:00,
2013-07-08 22:45:00,66.5,67.0,29.95,East,92,0.0,-999.0,100,-99.99,,,0.23,weatherlink.com 1.10,2013-07-09 02:45:00,
2013-07-08 23:31:00,65.8,66.0,29.95,East,91,5.0,-999.0,100,-99.99,,,0.24,weatherlink.com 1.10,2013-07-09 03:31:00,
2013-07-08 23:46:00,65.7,66.0,29.94,ESE,116,0.0,-999.0,100,-99.99,,,0.25,weatherlink.com 1.10,2013-07-09 03:46:00,